owner,sensor,date,latitude,longitude,vertical_datum,direction_of_sea_water_velocity,sea_water_speed,upward_sea_water_velocity,qcFlag 
TABS,ioos:station:wmo:42047:1,2002-05-01T00:00:00Z,27.8966,-93.5973,2.0,85.96580284,46.05411165,-99999.0,'11111222,11111222,99999999' 
TABS,ioos:station:wmo:42047:1,2002-05-01T00:30:00Z,27.8966,-93.5973,2.0,84.11219948,41.82061812,-99999.0,'11111222,11111222,99999999' 
TABS,ioos:station:wmo:42047:1,2002-05-01T01:00:00Z,27.8966,-93.5973,2.0,80.96083766,42.96355898,-99999.0,'11111222,11111222,99999999' 
TABS,ioos:station:wmo:42047:1,2002-05-01T01:30:00Z,27.8966,-93.5973,2.0,76.36293979,41.77777519,-99999.0,'11111222,11111222,99999999' 
TABS,ioos:station:wmo:42047:1,2002-05-01T02:00:00Z,27.8966,-93.5973,2.0,71.66765468,40.63217075,-99999.0,'11111222,11111222,99999999' 
TABS,ioos:station:wmo:42047:1,2002-05-01T02:30:00Z,27.8966,-93.5973,2.0,67.04567085,41.89763716,-99999.0,'11111222,11111222,99999999' 
TABS,ioos:station:wmo:42047:1,2002-05-01T03:00:00Z,27.8966,-93.5973,2.0,64.75236988,39.29362798,-99999.0,'11111222,11111222,99999999' 
TABS,ioos:station:wmo:42047:1,2002-05-01T03:30:00Z,27.8966,-93.5973,2.0,62.0058942,40.8835676,-99999.0,'11111222,11111222,99999999' 
TABS,ioos:station:wmo:42047:1,2002-05-01T04:00:00Z,27.8966,-93.5973,2.0,56.33738778,46.43673223,-99999.0,'11111222,11111222,99999999' 
TABS,ioos:station:wmo:42047:1,2002-05-01T04:30:00Z,27.8966,-93.5973,2.0,54.75338659,42.57508426,-99999.0,'11111222,11111222,99999999' 
TABS,ioos:station:wmo:42047:1,2002-05-01T05:00:00Z,27.8966,-93.5973,2.0,53.740491,42.81042864,-99999.0,'11111222,11111222,99999999' 
TABS,ioos:station:wmo:42047:1,2002-05-01T05:30:00Z,27.8966,-93.5973,2.0,50.86718026,41.9887473,-99999.0,'11111222,11111222,99999999' 
TABS,ioos:station:wmo:42047:1,2002-05-01T06:00:00Z,27.8966,-93.5973,2.0,48.75839767,46.386968,-99999.0,'11111222,11111222,99999999' 
TABS,ioos:station:wmo:42047:1,2002-05-01T06:30:00Z,27.8966,-93.5973,2.0,47.94706382,45.93783843,-99999.0,'11111222,11111222,99999999' 
TABS,ioos:station:wmo:42047:1,2002-05-01T07:00:00Z,27.8966,-93.5973,2.0,49.01931285,47.81902968,-99999.0,'11111222,11111222,99999999' 
TABS,ioos:station:wmo:42047:1,2002-05-01T07:30:00Z,27.8966,-93.5973,2.0,46.70113216,49.54759328,-99999.0,'11111222,11111222,99999999' 
TABS,ioos:station:wmo:42047:1,2002-05-01T08:00:00Z,27.8966,-93.5973,2.0,49.49579751,56.38139143,-99999.0,'11111222,11111222,99999999' 
TABS,ioos:station:wmo:42047:1,2002-05-01T08:30:00Z,27.8966,-93.5973,2.0,49.15910244,57.81681157,-99999.0,'11111222,11111222,99999999' 
TABS,ioos:station:wmo:42047:1,2002-05-01T09:00:00Z,27.8966,-93.5973,2.0,47.60048125,59.06888606,-99999.0,'11111222,11111222,99999999' 
TABS,ioos:station:wmo:42047:1,2002-05-01T09:30:00Z,27.8966,-93.5973,2.0,50.03244309,61.10328469,-99999.0,'11111222,11111222,99999999' 
TABS,ioos:station:wmo:42047:1,2002-05-01T10:00:00Z,27.8966,-93.5973,2.0,52.46678915,62.3581799,-99999.0,'11111222,11111222,99999999' 
TABS,ioos:station:wmo:42047:1,2002-05-01T10:30:00Z,27.8966,-93.5973,2.0,54.20555267,62.23496124,-99999.0,'11111222,11111222,99999999' 
TABS,ioos:station:wmo:42047:1,2002-05-01T11:00:00Z,27.8966,-93.5973,2.0,58.59618627,64.52138638,-99999.0,'11111222,11111222,99999999' 
TABS,ioos:station:wmo:42047:1,2002-05-01T11:30:00Z,27.8966,-93.5973,2.0,59.5425926,64.82556594,-99999.0,'11111222,11111222,99999999' 
TABS,ioos:station:wmo:42047:1,2002-05-01T12:00:00Z,27.8966,-93.5973,2.0,61.71058593,65.38988072,-99999.0,'11111222,11111222,99999999' 
TABS,ioos:station:wmo:42047:1,2002-05-01T12:30:00Z,27.8966,-93.5973,2.0,61.31735362,60.75521048,-99999.0,'11111222,11111222,99999999' 
TABS,ioos:station:wmo:42047:1,2002-05-01T13:00:00Z,27.8966,-93.5973,2.0,63.05242157,62.95566138,-99999.0,'11111222,11111222,99999999' 
TABS,ioos:station:wmo:42047:1,2002-05-01T13:30:00Z,27.8966,-93.5973,2.0,61.310515,61.28355407,-99999.0,'11111222,11111222,99999999' 
TABS,ioos:station:wmo:42047:1,2002-05-01T14:00:00Z,27.8966,-93.5973,2.0,60.9517436,62.03311454,-99999.0,'11111222,11111222,99999999' 
TABS,ioos:station:wmo:42047:1,2002-05-01T14:30:00Z,27.8966,-93.5973,2.0,63.46952379,59.39444839,-99999.0,'11111222,11111222,99999999' 
TABS,ioos:station:wmo:42047:1,2002-05-01T15:00:00Z,27.8966,-93.5973,2.0,62.63282457,61.64996431,-99999.0,'11111222,11111222,99999999' 
TABS,ioos:station:wmo:42047:1,2002-05-01T15:30:00Z,27.8966,-93.5973,2.0,61.92650919,63.02529413,-99999.0,'11111222,11111222,99999999' 
TABS,ioos:station:wmo:42047:1,2002-05-01T16:00:00Z,27.8966,-93.5973,2.0,64.56812003,61.96461652,-99999.0,'11111222,11111222,99999999' 
TABS,ioos:station:wmo:42047:1,2002-05-01T16:30:00Z,27.8966,-93.5973,2.0,66.79106085,65.08728678,-99999.0,'11111222,11111222,99999999' 
TABS,ioos:station:wmo:42047:1,2002-05-01T17:00:00Z,27.8966,-93.5973,2.0,69.4191888,64.85952821,-99999.0,'11111222,11111222,99999999' 
TABS,ioos:station:wmo:42047:1,2002-05-01T17:30:00Z,27.8966,-93.5973,2.0,72.85135985,61.4205845,-99999.0,'11111222,11111222,99999999' 
TABS,ioos:station:wmo:42047:1,2002-05-01T18:00:00Z,27.8966,-93.5973,2.0,73.72850992,62.74320123,-99999.0,'11111222,11111222,99999999' 
TABS,ioos:station:wmo:42047:1,2002-05-01T18:30:00Z,27.8966,-93.5973,2.0,72.60682799,60.18176634,-99999.0,'11111222,11111222,99999999' 
TABS,ioos:station:wmo:42047:1,2002-05-01T19:00:00Z,27.8966,-93.5973,2.0,74.70497462,60.38896754,-99999.0,'11111222,11111222,99999999' 
TABS,ioos:station:wmo:42047:1,2002-05-01T19:30:00Z,27.8966,-93.5973,2.0,81.69742652,56.37080805,-99999.0,'11111222,11111222,99999999' 
TABS,ioos:station:wmo:42047:1,2002-05-01T20:00:00Z,27.8966,-93.5973,2.0,82.30503648,57.3564992,-99999.0,'11111222,11111222,99999999' 
TABS,ioos:station:wmo:42047:1,2002-05-01T20:30:00Z,27.8966,-93.5973,2.0,83.53487199,57.72711321,-99999.0,'11111222,11111222,99999999' 
TABS,ioos:station:wmo:42047:1,2002-05-01T21:00:00Z,27.8966,-93.5973,2.0,85.95102726,59.05740428,-99999.0,'11111222,11111222,99999999' 
TABS,ioos:station:wmo:42047:1,2002-05-01T21:30:00Z,27.8966,-93.5973,2.0,91.96100843,58.15405833,-99999.0,'11111222,11111222,99999999' 
TABS,ioos:station:wmo:42047:1,2002-05-01T22:00:00Z,27.8966,-93.5973,2.0,92.23836521,57.86415125,-99999.0,'11111222,11111222,99999999' 
TABS,ioos:station:wmo:42047:1,2002-05-01T22:30:00Z,27.8966,-93.5973,2.0,95.06463782,55.95847746,-99999.0,'11111222,11111222,99999999' 
TABS,ioos:station:wmo:42047:1,2002-05-01T23:00:00Z,27.8966,-93.5973,2.0,97.53732043,55.49953874,-99999.0,'11111222,11111222,99999999' 
TABS,ioos:station:wmo:42047:1,2002-05-01T23:30:00Z,27.8966,-93.5973,2.0,101.9297402,53.11724108,-99999.0,'11111222,11111222,99999999' 
TABS,ioos:station:wmo:42047:1,2002-05-02T00:00:00Z,27.8966,-93.5973,2.0,101.7852616,52.24125286,-99999.0,'11111222,11111222,99999999' 
TABS,ioos:station:wmo:42047:1,2002-05-02T00:30:00Z,27.8966,-93.5973,2.0,107.7842669,49.01213931,-99999.0,'11111222,11111222,99999999' 
TABS,ioos:station:wmo:42047:1,2002-05-02T01:00:00Z,27.8966,-93.5973,2.0,111.0422418,43.02938647,-99999.0,'11111222,11111222,99999999' 
TABS,ioos:station:wmo:42047:1,2002-05-02T01:30:00Z,27.8966,-93.5973,2.0,112.4549628,40.37093633,-99999.0,'11111222,11111222,99999999' 
TABS,ioos:station:wmo:42047:1,2002-05-02T02:00:00Z,27.8966,-93.5973,2.0,112.4769965,38.26704196,-99999.0,'11111222,11111222,99999999' 
TABS,ioos:station:wmo:42047:1,2002-05-02T02:30:00Z,27.8966,-93.5973,2.0,112.0914105,32.27983426,-99999.0,'11111222,11111222,99999999' 
TABS,ioos:station:wmo:42047:1,2002-05-02T03:00:00Z,27.8966,-93.5973,2.0,103.1211755,26.12199265,-99999.0,'11111222,11111222,99999999' 
TABS,ioos:station:wmo:42047:1,2002-05-02T03:30:00Z,27.8966,-93.5973,2.0,103.1022568,28.71760784,-99999.0,'11111222,11111222,99999999' 
TABS,ioos:station:wmo:42047:1,2002-05-02T04:00:00Z,27.8966,-93.5973,2.0,98.72282562,22.4193131,-99999.0,'11111222,11111222,99999999' 
TABS,ioos:station:wmo:42047:1,2002-05-02T04:30:00Z,27.8966,-93.5973,2.0,92.32947276,22.38850151,-99999.0,'11111222,11111222,99999999' 
TABS,ioos:station:wmo:42047:1,2002-05-02T05:00:00Z,27.8966,-93.5973,2.0,65.84702955,21.67776049,-99999.0,'11111222,11111222,99999999' 
TABS,ioos:station:wmo:42047:1,2002-05-02T05:30:00Z,27.8966,-93.5973,2.0,58.16032839,24.56661352,-99999.0,'11111222,11111222,99999999' 
TABS,ioos:station:wmo:42047:1,2002-05-02T06:00:00Z,27.8966,-93.5973,2.0,46.77225981,24.23707078,-99999.0,'11111222,11111222,99999999' 
TABS,ioos:station:wmo:42047:1,2002-05-02T06:30:00Z,27.8966,-93.5973,2.0,34.93260001,29.16467212,-99999.0,'11111222,11111222,99999999' 
TABS,ioos:station:wmo:42047:1,2002-05-02T07:00:00Z,27.8966,-93.5973,2.0,33.49828686,33.12133451,-99999.0,'11111222,11111222,99999999' 
TABS,ioos:station:wmo:42047:1,2002-05-02T07:30:00Z,27.8966,-93.5973,2.0,28.7774458,36.72571987,-99999.0,'11111222,11111222,99999999' 
TABS,ioos:station:wmo:42047:1,2002-05-02T08:00:00Z,27.8966,-93.5973,2.0,27.98382779,37.57298631,-99999.0,'11111222,11111222,99999999' 
TABS,ioos:station:wmo:42047:1,2002-05-02T08:30:00Z,27.8966,-93.5973,2.0,27.56954475,42.60811308,-99999.0,'11111222,11111222,99999999' 
TABS,ioos:station:wmo:42047:1,2002-05-02T09:00:00Z,27.8966,-93.5973,2.0,33.81638498,44.07658449,-99999.0,'11111222,11111222,99999999' 
TABS,ioos:station:wmo:42047:1,2002-05-02T09:30:00Z,27.8966,-93.5973,2.0,37.11005148,46.30840636,-99999.0,'11111222,11111222,99999999' 
TABS,ioos:station:wmo:42047:1,2002-05-02T10:00:00Z,27.8966,-93.5973,2.0,37.39357257,49.46606514,-99999.0,'11111222,11111222,99999999' 
TABS,ioos:station:wmo:42047:1,2002-05-02T10:30:00Z,27.8966,-93.5973,2.0,43.9684646,54.59042132,-99999.0,'11111222,11111222,99999999' 
TABS,ioos:station:wmo:42047:1,2002-05-02T11:00:00Z,27.8966,-93.5973,2.0,44.46382366,55.14967362,-99999.0,'11111222,11111222,99999999' 
TABS,ioos:station:wmo:42047:1,2002-05-02T11:30:00Z,27.8966,-93.5973,2.0,49.03563577,54.75977082,-99999.0,'11111222,11111222,99999999' 
TABS,ioos:station:wmo:42047:1,2002-05-02T12:00:00Z,27.8966,-93.5973,2.0,51.00378066,59.83120005,-99999.0,'11111222,11111222,99999999' 
TABS,ioos:station:wmo:42047:1,2002-05-02T12:30:00Z,27.8966,-93.5973,2.0,53.5198842,60.28139431,-99999.0,'11111222,11111222,99999999' 
TABS,ioos:station:wmo:42047:1,2002-05-02T13:00:00Z,27.8966,-93.5973,2.0,57.72976951,57.31257803,-99999.0,'11111222,11111222,99999999' 
TABS,ioos:station:wmo:42047:1,2002-05-02T13:30:00Z,27.8966,-93.5973,2.0,59.68899032,57.36142345,-99999.0,'11111222,11111222,99999999' 
TABS,ioos:station:wmo:42047:1,2002-05-02T14:00:00Z,27.8966,-93.5973,2.0,60.35950723,55.18066419,-99999.0,'11111222,11111222,99999999' 
TABS,ioos:station:wmo:42047:1,2002-05-02T14:30:00Z,27.8966,-93.5973,2.0,66.18577225,57.30937532,-99999.0,'11111222,11111222,99999999' 
TABS,ioos:station:wmo:42047:1,2002-05-02T15:00:00Z,27.8966,-93.5973,2.0,67.31218935,51.85234421,-99999.0,'11111222,11111222,99999999' 
TABS,ioos:station:wmo:42047:1,2002-05-02T15:30:00Z,27.8966,-93.5973,2.0,69.90331765,52.56018645,-99999.0,'11111222,11111222,99999999' 
TABS,ioos:station:wmo:42047:1,2002-05-02T16:00:00Z,27.8966,-93.5973,2.0,69.62945545,49.9007545,-99999.0,'11111222,11111222,99999999' 
TABS,ioos:station:wmo:42047:1,2002-05-02T16:30:00Z,27.8966,-93.5973,2.0,76.63310056,51.90616534,-99999.0,'11111222,11111222,99999999' 
TABS,ioos:station:wmo:42047:1,2002-05-02T17:00:00Z,27.8966,-93.5973,2.0,79.57196138,51.9887007,-99999.0,'11111222,11111222,99999999' 
TABS,ioos:station:wmo:42047:1,2002-05-02T17:30:00Z,27.8966,-93.5973,2.0,83.28955106,53.31524547,-99999.0,'11111222,11111222,99999999' 
TABS,ioos:station:wmo:42047:1,2002-05-02T18:00:00Z,27.8966,-93.5973,2.0,87.14626761,52.82550994,-99999.0,'11111222,11111222,99999999' 
TABS,ioos:station:wmo:42047:1,2002-05-02T18:30:00Z,27.8966,-93.5973,2.0,86.99277366,48.79719767,-99999.0,'11111222,11111222,99999999' 
TABS,ioos:station:wmo:42047:1,2002-05-02T19:00:00Z,27.8966,-93.5973,2.0,87.91114914,51.30409145,-99999.0,'11111222,11111222,99999999' 
TABS,ioos:station:wmo:42047:1,2002-05-02T19:30:00Z,27.8966,-93.5973,2.0,91.46551815,49.26611513,-99999.0,'11111222,11111222,99999999' 
TABS,ioos:station:wmo:42047:1,2002-05-02T20:00:00Z,27.8966,-93.5973,2.0,87.88877663,51.57500945,-99999.0,'11111222,11111222,99999999' 
TABS,ioos:station:wmo:42047:1,2002-05-02T20:30:00Z,27.8966,-93.5973,2.0,90.11556186,49.58010085,-99999.0,'11111222,11111222,99999999' 
TABS,ioos:station:wmo:42047:1,2002-05-02T21:00:00Z,27.8966,-93.5973,2.0,94.52626,46.50503736,-99999.0,'11111222,11111222,99999999' 
TABS,ioos:station:wmo:42047:1,2002-05-02T21:30:00Z,27.8966,-93.5973,2.0,97.63510088,45.83637202,-99999.0,'11111222,11111222,99999999' 
TABS,ioos:station:wmo:42047:1,2002-05-02T22:00:00Z,27.8966,-93.5973,2.0,102.3584698,44.15313579,-99999.0,'11111222,11111222,99999999' 
TABS,ioos:station:wmo:42047:1,2002-05-02T22:30:00Z,27.8966,-93.5973,2.0,103.4728361,39.95967592,-99999.0,'11111222,11111222,99999999' 
TABS,ioos:station:wmo:42047:1,2002-05-02T23:00:00Z,27.8966,-93.5973,2.0,101.1491984,34.95979977,-99999.0,'11111222,11111222,99999999' 
TABS,ioos:station:wmo:42047:1,2002-05-02T23:30:00Z,27.8966,-93.5973,2.0,109.6618976,33.22734567,-99999.0,'11111222,11111222,99999999' 
TABS,ioos:station:wmo:42047:1,2002-05-03T00:00:00Z,27.8966,-93.5973,2.0,105.4330456,29.64908936,-99999.0,'11111222,11111222,99999999' 
TABS,ioos:station:wmo:42047:1,2002-05-03T00:30:00Z,27.8966,-93.5973,2.0,101.173549,26.36985021,-99999.0,'11111222,11111222,99999999' 
TABS,ioos:station:wmo:42047:1,2002-05-03T01:00:00Z,27.8966,-93.5973,2.0,117.2058281,22.79143041,-99999.0,'11111222,11111222,99999999' 
TABS,ioos:station:wmo:42047:1,2002-05-03T01:30:00Z,27.8966,-93.5973,2.0,118.2445871,20.75068192,-99999.0,'11111222,11111222,99999999' 
TABS,ioos:station:wmo:42047:1,2002-05-03T02:00:00Z,27.8966,-93.5973,2.0,123.3168,15.32946509,-99999.0,'11111222,11111222,99999999' 
TABS,ioos:station:wmo:42047:1,2002-05-03T02:30:00Z,27.8966,-93.5973,2.0,142.5844043,13.2325999,-99999.0,'11111222,11111222,99999999' 
TABS,ioos:station:wmo:42047:1,2002-05-03T03:00:00Z,27.8966,-93.5973,2.0,122.4091369,9.926066693,-99999.0,'11133222,11111222,99999999' 
TABS,ioos:station:wmo:42047:1,2002-05-03T03:30:00Z,27.8966,-93.5973,2.0,111.0245912,9.58833145,-99999.0,'11133222,11111222,99999999' 
TABS,ioos:station:wmo:42047:1,2002-05-03T04:00:00Z,27.8966,-93.5973,2.0,88.26429947,6.933181088,-99999.0,'11133222,11111222,99999999' 
TABS,ioos:station:wmo:42047:1,2002-05-03T04:30:00Z,27.8966,-93.5973,2.0,66.58331787,5.862874721,-99999.0,'11133222,11111222,99999999' 
TABS,ioos:station:wmo:42047:1,2002-05-03T05:00:00Z,27.8966,-93.5973,2.0,35.49988613,3.513004412,-99999.0,'11133222,11111222,99999999' 
TABS,ioos:station:wmo:42047:1,2002-05-03T05:30:00Z,27.8966,-93.5973,2.0,13.81337349,4.984144861,-99999.0,'11133222,11111222,99999999' 
TABS,ioos:station:wmo:42047:1,2002-05-03T06:00:00Z,27.8966,-93.5973,2.0,5.732905708,10.31157117,-99999.0,'11111222,11111222,99999999' 
TABS,ioos:station:wmo:42047:1,2002-05-03T06:30:00Z,27.8966,-93.5973,2.0,24.70115423,14.57345875,-99999.0,'11111222,11111222,99999999' 
TABS,ioos:station:wmo:42047:1,2002-05-03T07:00:00Z,27.8966,-93.5973,2.0,27.12524368,19.67386591,-99999.0,'11111222,11111222,99999999' 
TABS,ioos:station:wmo:42047:1,2002-05-03T07:30:00Z,27.8966,-93.5973,2.0,25.72898675,23.2888922,-99999.0,'11111222,11111222,99999999' 
TABS,ioos:station:wmo:42047:1,2002-05-03T08:00:00Z,27.8966,-93.5973,2.0,30.98439099,23.97035878,-99999.0,'11111222,11111222,99999999' 
TABS,ioos:station:wmo:42047:1,2002-05-03T08:30:00Z,27.8966,-93.5973,2.0,28.83386108,28.46957148,-99999.0,'11111222,11111222,99999999' 
TABS,ioos:station:wmo:42047:1,2002-05-03T09:00:00Z,27.8966,-93.5973,2.0,31.66968123,33.27496506,-99999.0,'11111222,11111222,99999999' 
TABS,ioos:station:wmo:42047:1,2002-05-03T09:30:00Z,27.8966,-93.5973,2.0,27.90627321,33.63073,-99999.0,'11111222,11111222,99999999' 
TABS,ioos:station:wmo:42047:1,2002-05-03T10:00:00Z,27.8966,-93.5973,2.0,31.22952571,35.14215275,-99999.0,'11111222,11111222,99999999' 
TABS,ioos:station:wmo:42047:1,2002-05-03T10:30:00Z,27.8966,-93.5973,2.0,29.9289533,39.02400928,-99999.0,'11111222,11111222,99999999' 
TABS,ioos:station:wmo:42047:1,2002-05-03T11:00:00Z,27.8966,-93.5973,2.0,37.66360178,40.86591979,-99999.0,'11111222,11111222,99999999' 
TABS,ioos:station:wmo:42047:1,2002-05-03T11:30:00Z,27.8966,-93.5973,2.0,46.86798058,43.82147875,-99999.0,'11111222,11111222,99999999' 
TABS,ioos:station:wmo:42047:1,2002-05-03T12:00:00Z,27.8966,-93.5973,2.0,48.78391402,42.75294727,-99999.0,'11111222,11111222,99999999' 
TABS,ioos:station:wmo:42047:1,2002-05-03T12:30:00Z,27.8966,-93.5973,2.0,53.44154844,47.10869559,-99999.0,'11111222,11111222,99999999' 
TABS,ioos:station:wmo:42047:1,2002-05-03T13:00:00Z,27.8966,-93.5973,2.0,60.20387317,45.70185664,-99999.0,'11111222,11111222,99999999' 
TABS,ioos:station:wmo:42047:1,2002-05-03T13:30:00Z,27.8966,-93.5973,2.0,64.23708682,47.60160712,-99999.0,'11111222,11111222,99999999' 
TABS,ioos:station:wmo:42047:1,2002-05-03T14:00:00Z,27.8966,-93.5973,2.0,72.4440925,46.38025981,-99999.0,'11111222,11111222,99999999' 
TABS,ioos:station:wmo:42047:1,2002-05-03T14:30:00Z,27.8966,-93.5973,2.0,76.30954213,48.63170365,-99999.0,'11111222,11111222,99999999' 
TABS,ioos:station:wmo:42047:1,2002-05-03T15:00:00Z,27.8966,-93.5973,2.0,82.33914196,49.73390192,-99999.0,'11111222,11111222,99999999' 
TABS,ioos:station:wmo:42047:1,2002-05-03T15:30:00Z,27.8966,-93.5973,2.0,85.23734491,48.77842351,-99999.0,'11111222,11111222,99999999' 
TABS,ioos:station:wmo:42047:1,2002-05-03T16:00:00Z,27.8966,-93.5973,2.0,87.97420005,50.07129417,-99999.0,'11111222,11111222,99999999' 
TABS,ioos:station:wmo:42047:1,2002-05-03T16:30:00Z,27.8966,-93.5973,2.0,92.78637057,48.54739643,-99999.0,'11111222,11111222,99999999' 
TABS,ioos:station:wmo:42047:1,2002-05-03T17:00:00Z,27.8966,-93.5973,2.0,95.40574137,47.12960853,-99999.0,'11111222,11111222,99999999' 
TABS,ioos:station:wmo:42047:1,2002-05-03T17:30:00Z,27.8966,-93.5973,2.0,102.9493206,47.43637634,-99999.0,'11111222,11111222,99999999' 
TABS,ioos:station:wmo:42047:1,2002-05-03T18:00:00Z,27.8966,-93.5973,2.0,103.3235143,44.65183759,-99999.0,'11111222,11111222,99999999' 
TABS,ioos:station:wmo:42047:1,2002-05-03T18:30:00Z,27.8966,-93.5973,2.0,99.19850339,40.34887111,-99999.0,'11111222,11111222,99999999' 
TABS,ioos:station:wmo:42047:1,2002-05-03T19:00:00Z,27.8966,-93.5973,2.0,108.4543313,37.30855398,-99999.0,'11111222,11111222,99999999' 
TABS,ioos:station:wmo:42047:1,2002-05-03T19:30:00Z,27.8966,-93.5973,2.0,107.1140617,37.04011339,-99999.0,'11111222,11111222,99999999' 
TABS,ioos:station:wmo:42047:1,2002-05-03T20:00:00Z,27.8966,-93.5973,2.0,113.6284081,35.87786644,-99999.0,'11111222,11111222,99999999' 
TABS,ioos:station:wmo:42047:1,2002-05-03T20:30:00Z,27.8966,-93.5973,2.0,116.0684295,35.08969649,-99999.0,'11111222,11111222,99999999' 
TABS,ioos:station:wmo:42047:1,2002-05-03T21:00:00Z,27.8966,-93.5973,2.0,109.5470681,29.97771506,-99999.0,'11111222,11111222,99999999' 
TABS,ioos:station:wmo:42047:1,2002-05-03T21:30:00Z,27.8966,-93.5973,2.0,105.6885616,26.66332687,-99999.0,'11111222,11111222,99999999' 
TABS,ioos:station:wmo:42047:1,2002-05-03T22:00:00Z,27.8966,-93.5973,2.0,110.5559972,22.72704996,-99999.0,'11111222,11111222,99999999' 
TABS,ioos:station:wmo:42047:1,2002-05-03T22:30:00Z,27.8966,-93.5973,2.0,106.581518,18.18628604,-99999.0,'11111222,11111222,99999999' 
TABS,ioos:station:wmo:42047:1,2002-05-03T23:00:00Z,27.8966,-93.5973,2.0,111.1457623,17.85206151,-99999.0,'11111222,11111222,99999999' 
TABS,ioos:station:wmo:42047:1,2002-05-03T23:30:00Z,27.8966,-93.5973,2.0,95.49549463,13.78335228,-99999.0,'11111222,11111222,99999999' 
TABS,ioos:station:wmo:42047:1,2002-05-04T00:00:00Z,27.8966,-93.5973,2.0,108.4074653,13.20567302,-99999.0,'11111222,11111222,99999999' 
TABS,ioos:station:wmo:42047:1,2002-05-04T00:30:00Z,27.8966,-93.5973,2.0,104.818402,10.12680601,-99999.0,'11111222,11111222,99999999' 
TABS,ioos:station:wmo:42047:1,2002-05-04T01:00:00Z,27.8966,-93.5973,2.0,109.0576599,7.564614994,-99999.0,'11133222,11111222,99999999' 
TABS,ioos:station:wmo:42047:1,2002-05-04T01:30:00Z,27.8966,-93.5973,2.0,77.36666761,8.915856661,-99999.0,'11133222,11111222,99999999' 
TABS,ioos:station:wmo:42047:1,2002-05-04T02:00:00Z,27.8966,-93.5973,2.0,81.56845674,9.138774535,-99999.0,'11133222,11111222,99999999' 
TABS,ioos:station:wmo:42047:1,2002-05-04T02:30:00Z,27.8966,-93.5973,2.0,82.31565476,11.81611188,-99999.0,'11111222,11111222,99999999' 
TABS,ioos:station:wmo:42047:1,2002-05-04T03:00:00Z,27.8966,-93.5973,2.0,70.54372421,5.854306107,-99999.0,'11133222,11111222,99999999' 
TABS,ioos:station:wmo:42047:1,2002-05-04T03:30:00Z,27.8966,-93.5973,2.0,82.17820979,6.833578857,-99999.0,'11133222,11111222,99999999' 
TABS,ioos:station:wmo:42047:1,2002-05-04T04:00:00Z,27.8966,-93.5973,2.0,82.31251965,8.970624282,-99999.0,'11133222,11111222,99999999' 
TABS,ioos:station:wmo:42047:1,2002-05-04T04:30:00Z,27.8966,-93.5973,2.0,70.00416241,7.661879665,-99999.0,'11133222,11111222,99999999' 
TABS,ioos:station:wmo:42047:1,2002-05-04T05:00:00Z,27.8966,-93.5973,2.0,77.74601874,9.046104134,-99999.0,'11133222,11111222,99999999' 
TABS,ioos:station:wmo:42047:1,2002-05-04T05:30:00Z,27.8966,-93.5973,2.0,82.1709418,8.075270893,-99999.0,'11133222,11111222,99999999' 
TABS,ioos:station:wmo:42047:1,2002-05-04T06:00:00Z,27.8966,-93.5973,2.0,97.54622288,8.604522067,-99999.0,'11133222,11111222,99999999' 
TABS,ioos:station:wmo:42047:1,2002-05-04T06:30:00Z,27.8966,-93.5973,2.0,73.64862518,6.784408596,-99999.0,'11133222,11111222,99999999' 
TABS,ioos:station:wmo:42047:1,2002-05-04T07:00:00Z,27.8966,-93.5973,2.0,72.44896821,6.764916851,-99999.0,'11133222,11111222,99999999' 
TABS,ioos:station:wmo:42047:1,2002-05-04T07:30:00Z,27.8966,-93.5973,2.0,56.25798738,9.163651019,-99999.0,'11133222,11111222,99999999' 
TABS,ioos:station:wmo:42047:1,2002-05-04T08:00:00Z,27.8966,-93.5973,2.0,44.70438839,10.96030109,-99999.0,'11111222,11111222,99999999' 
TABS,ioos:station:wmo:42047:1,2002-05-04T08:30:00Z,27.8966,-93.5973,2.0,47.05656657,14.38474539,-99999.0,'11111222,11111222,99999999' 
TABS,ioos:station:wmo:42047:1,2002-05-04T09:00:00Z,27.8966,-93.5973,2.0,40.12435811,16.80510042,-99999.0,'11111222,11111222,99999999' 
TABS,ioos:station:wmo:42047:1,2002-05-04T09:30:00Z,27.8966,-93.5973,2.0,38.28103293,15.35065471,-99999.0,'11111222,11111222,99999999' 
TABS,ioos:station:wmo:42047:1,2002-05-04T10:00:00Z,27.8966,-93.5973,2.0,46.3728458,18.59517411,-99999.0,'11111222,11111222,99999999' 
TABS,ioos:station:wmo:42047:1,2002-05-04T10:30:00Z,27.8966,-93.5973,2.0,48.19172442,22.86086613,-99999.0,'11111222,11111222,99999999' 
TABS,ioos:station:wmo:42047:1,2002-05-04T11:00:00Z,27.8966,-93.5973,2.0,56.21892128,24.42348051,-99999.0,'11111222,11111222,99999999' 
TABS,ioos:station:wmo:42047:1,2002-05-04T11:30:00Z,27.8966,-93.5973,2.0,62.34925886,25.01714812,-99999.0,'11111222,11111222,99999999' 
TABS,ioos:station:wmo:42047:1,2002-05-04T12:00:00Z,27.8966,-93.5973,2.0,67.65290268,24.56489365,-99999.0,'11111222,11111222,99999999' 
TABS,ioos:station:wmo:42047:1,2002-05-04T12:30:00Z,27.8966,-93.5973,2.0,70.76469798,24.22224804,-99999.0,'11111222,11111222,99999999' 
TABS,ioos:station:wmo:42047:1,2002-05-04T13:00:00Z,27.8966,-93.5973,2.0,80.70920902,24.71421049,-99999.0,'11111222,11111222,99999999' 
TABS,ioos:station:wmo:42047:1,2002-05-04T13:30:00Z,27.8966,-93.5973,2.0,86.24367447,24.42246712,-99999.0,'11111222,11111222,99999999' 
TABS,ioos:station:wmo:42047:1,2002-05-04T14:00:00Z,27.8966,-93.5973,2.0,94.79131247,24.06409151,-99999.0,'11111222,11111222,99999999' 
TABS,ioos:station:wmo:42047:1,2002-05-04T14:30:00Z,27.8966,-93.5973,2.0,101.8643627,21.88758552,-99999.0,'11111222,11111222,99999999' 
TABS,ioos:station:wmo:42047:1,2002-05-04T15:00:00Z,27.8966,-93.5973,2.0,99.98598889,22.66334706,-99999.0,'11111222,11111222,99999999' 
TABS,ioos:station:wmo:42047:1,2002-05-04T15:30:00Z,27.8966,-93.5973,2.0,109.3707859,19.74789609,-99999.0,'11111222,11111222,99999999' 
TABS,ioos:station:wmo:42047:1,2002-05-04T16:00:00Z,27.8966,-93.5973,2.0,111.3679835,17.92196976,-99999.0,'11111222,11111222,99999999' 